Regional Weather Roundup
Issued by NWS

Home | Current Version | Previous Version | Graphics & Text | Print | Product List | Glossary On
Versions: 1 2 3 4 5 6 7 8 9 10 11 12 13 14 15 16 17 18 19 20 21 22 23 24 25 26 27
000
ASUS45 KTFX 231710
RWRMT
MONTANA REGIONAL WEATHER ROUNDUP
NATIONAL WEATHER SERVICE GREAT FALLS MT
1100 AM MDT MON OCT 23 2017

NOTE: "FAIR" INDICATES FEW OR NO CLOUDS BELOW 12000 FEET WITH NO
SIGNIFICANT WEATHER AND/OR OBSTRUCTIONS TO VISIBILITY.

MTZ001>007-043-231800-
WEST OF THE DIVIDE

CITY           SKY/WX    TMP DP  RH WIND       PRES   REMARKS
KALISPELL      SUNNY     46  35  65 CALM      30.60R
MISSOULA       MOSUNNY   43  38  82 E3        30.64R
BUTTE          SUNNY     42  24  49 NW14G20   30.60R
MULLAN PASS    CLOUDY    33  28  81 VRB5      30.59R
ANACONDA         N/A     45  25  45 W13G18    30.60R
DEER LODGE       N/A     43  30  61 E3        30.63R
EUREKA           N/A     48  30  49 MISG      30.59R
HAMILTON         N/A     48  30  49 SE7       30.63R
LIBBY            N/A     43  34  70 CALM      30.62R
PLAINS           N/A     45  33  62 CALM      30.60R
$$

MTZ008-052>055-231800-
SOUTHWEST MONTANA

CITY           SKY/WX    TMP DP  RH WIND       PRES   REMARKS
BOZEMAN        SUNNY     50  23  34 W16G25    30.57R
DILLON         SUNNY     47  24  40 SW14      30.59R
W YELLOWSTONE  SUNNY     39  21  48 VRB7G14   30.58R
ENNIS          SUNNY     46  23  39 CALM      30.63S
THREE FORKS      N/A     50  21  32 W15       30.50R
TWIN BRIDGES     N/A     48  20  33 CALM      30.50R
$$

MTZ009-010-012-014-046-048-049-054-231800-
EAST SLOPES AND CENTRAL MONTANA

CITY           SKY/WX    TMP DP  RH WIND       PRES   REMARKS
CUT BANK       SUNNY     50  22  33 W21       30.45R
GREAT FALLS    SUNNY     51  21  30 W21G35    30.47R
MALMSTROM AFB  SUNNY     50  22  33 W23G33    30.48R
HELENA         SUNNY     50  26  39 W23G33    30.54S
BOWMANS CRNR     N/A     47  20  33 W17       30.49R
CHOTEAU          N/A     50  23  34 W20G26    30.49R
FAIRFIELD        N/A     50  20  31 W28G35    30.47R
POWER            N/A     50  21  31 W17       30.46R
RAYNESFORD       N/A     48  22  35 W25G36    30.47R
ULM              N/A     51  24  35 W16G28    30.49R
$$

MTZ011-013-016-021-045-047-050-051-231800-
NORTH CENTRAL MONTANA

CITY           SKY/WX    TMP DP  RH WIND       PRES   REMARKS
HAVRE          SUNNY     53  26  35 NW22G29   30.40R
LEWISTOWN      SUNNY     49  24  37 W21G33    30.44S
N BAR RANCH      N/A     46  21  36 NW22G33   30.45R
CHINOOK          N/A     52  28  40 W14G20    30.38R
DENTON           N/A     50  20  30 W29G35    30.42R
GEYSER           N/A     48  24  39 W23G36    30.46R
GRASS RANGE      N/A     49  24  38 W21G30    30.40R
JUDITH GAP       N/A     47  19  33 NW28G37   30.45R
STANFORD         N/A     48  21  34 NW28G35   30.45R
WINIFRED         N/A     49  21  33 W24G31    30.43R
$$

MTZ017>020-022>027-061-062-231800-
NORTHEAST MONTANA

CITY           SKY/WX    TMP DP  RH WIND       PRES   REMARKS
GLASGOW        SUNNY     50  27  40 NW16      30.30R
JORDAN           N/A     53  27  36 W23G29    30.35R
SIDNEY         SUNNY     53  31  42 NW21G28   30.23R
WOLF POINT     SUNNY     52  30  43 W18       30.27R
MALTA          SUNNY     50  27  40 NW23G29   30.35R
PLENTYWOOD       N/A     48  28  46 NW32G39   30.16R
POPLAR           N/A     50  30  46 W16       30.26R
SCOBEY           N/A     50  23  34 W28       30.21R
$$

MTZ028>42-056>058-231800-
SOUTHCENTRAL AND SOUTHEAST MONTANA

CITY           SKY/WX    TMP DP  RH WIND       PRES   REMARKS
BAKER          SUNNY     50  30  46 NW25G36   30.28R
BILLINGS       MOSUNNY   53  25  33 NW22G31   30.46R
LIVINGSTON     MOSUNNY   51  20  29 W28G38    30.52R
MILES CITY     SUNNY     55  26  32 NW31G40   30.33R
BIG TIMBER     SUNNY     48  23  37 W25G38    30.52R
EKALAKA          N/A     47  25  42 W17       30.26R
FORSYTH          N/A     54  25  32 W21G30    30.38R
HARLOWTON        N/A     48  24  38 W28G39    30.47R
LAUREL           N/A     55  25  30 NW14      30.48R
$$

REGIONAL REPORTS...DAKOTAS

CITY           SKY/WX    TMP DP  RH WIND       PRES   REMARKS
WILLISTON        N/A    N/A N/A N/A MISG      30.18R
MINOT          CLOUDY    49  35  58 NW24G32   30.06R
DICKINSON      SUNNY     51  31  46 NW29      30.16R
BEACH            N/A     50  28  43 W22G29    30.26R
CROSBY           N/A     50  32  50 NW32G39   30.13R
TIOGA            N/A     48  32  53 NW24G35   30.14R
BISMARCK       CLOUDY    52  33  48 NW26G39   30.12R
GRAND FORKS    MOSUNNY   51  36  56 N24G32    29.92R
FARGO          CLOUDY    48  38  68 NW21G35   29.92R
BUFFALO SD       N/A     51  27  39 NW36G43   30.20R
RAPID CITY     SUNNY     55  21  26 NW36G44   30.27F
$$

REGIONAL REPORTS...WYOMING/IDAHO/WASHINGTON

CITY           SKY/WX    TMP DP  RH WIND       PRES   REMARKS
GILLETTE       SUNNY     50  21  32 NW32G39   30.40R
SHERIDAN       MOSUNNY   50  24  36 NW30G39   30.44R
BUFFALO WY     PTSUNNY   48  20  32 N29G41    30.43R
CODY           SUNNY     51  15  23 NW18G29   30.49R
YELLOWSTONE LA   N/A     35  20  54 VRB7G20   30.59R WCI  29
IDAHO FALLS    CLOUDY    43  39  86 SW9       30.62R
SALMON         SUNNY     47  31  53 CALM      30.65R
BOISE          SUNNY     48  43  82 S5        30.67R
SPOKANE        MOSUNNY   43  40  89 S6        30.64R
$$

REGIONAL REPORTS...ALBERTA

CITY           SKY/WX    TMP DP  RH WIND       PRES   REMARKS
EDMONTON       SUNNY    N/A N/A N/A W12G18    30.30R
CALGARY        MOSUNNY   50  16  25 W21G29    30.38R
LETHBRIDGE     MOSUNNY   52  23  32 W24G30    30.42R
MEDICINE HAT   MOSUNNY   48  25  40 NW15G21   30.39R
$$

REGIONAL REPORTS...SASKATCHEWAN

CITY           SKY/WX    TMP DP  RH WIND       PRES   REMARKS
SWIFT CURRENT  SUNNY     45  27  49 NW15G21   30.27R
REGINA         PTSUNNY   45  36  70 NW26G32   30.15R
SASKATOON      MOSUNNY   46  36  66 NW17G26   30.19R
$$




USA.gov is the U.S. government's official web portal to all federal, state and local government web resources and services.